Terug naar catalogus

COSMOS 2251 DEB

ActiefLEO
NORAD 34790·DEBRIS·🇷🇺 Russia

Gelanceerd Jun 16, 1993 vanaf Plesetsk Cosmodrome

Loading…

Volgende Passages (komende 24 uur)

TLE

VersSource: Space-Track

Epoch: Sep 14, 2026, 00:13 UTC

1 34790U 93036AAT 26257.00934907  .00000864  00000-0  35798-3 0  9991
2 34790  74.0515 107.7215 0099166 103.4306  46.3435 14.25373681904949

Volg COSMOS 2251 DEB in realtime met AllMySat

Download on the App Store